IW7DVM-13 Weather Reports


Display with metric or nautical units.
time (UTC)temp
F
wind
direction
speed
MPH
gust
MPH
rain 1hr
in
rain 24hr
in
rain mn
in
humidity
%
barometer
mb
20260508111003 62 242 3.0 10.0 0.00 0.10 0.10 74 1005.7
20260508110503 62 240 5.0 12.0 0.00 0.10 0.10 74 1005.7
20260508110003 62 234 4.0 9.0 0.00 0.10 0.10 74 1005.6
20260508105503 62 241 3.0 7.0 0.00 0.10 0.10 74 1005.8
20260508105003 62 248 4.0 9.0 0.00 0.10 0.10 74 1005.8
20260508104503 62 235 3.0 11.0 0.00 0.10 0.10 74 1005.8
20260508104003 62 222 2.0 5.0 0.00 0.10 0.10 74 1005.8
20260508103503 62 244 2.0 7.0 0.00 0.10 0.10 74 1005.9
20260508103003 61 238 4.0 7.0 0.00 0.10 0.10 74 1006.0
20260508102503 62 238 2.0 6.0 0.02 0.10 0.10 74 1006.0
20260508102003 62 260 1.0 5.0 0.02 0.10 0.10 74 1006.0
20260508101503 62 225 1.0 5.0 0.02 0.10 0.10 74 1006.1
20260508101003 62 269 1.0 2.0 0.02 0.10 0.10 74 1006.0
20260508100503 61 284 0.0 3.0 0.02 0.10 0.10 74 1006.1
20260508100003 61 316 1.0 3.0 0.02 0.10 0.10 74 1006.0
20260508095503 61 324 2.0 5.0 0.02 0.10 0.10 74 1005.9
20260508095003 61 336 1.0 5.0 0.02 0.10 0.10 74 1006.0
20260508094503 61 334 1.0 3.0 0.02 0.10 0.10 74 1005.8
20260508094003 61 358 2.0 5.0 0.02 0.10 0.10 74 1005.7
20260508093503 61 2 2.0 6.0 0.02 0.10 0.10 74 1005.7
20260508093003 61 360 3.0 5.0 0.02 0.10 0.10 73 1005.7
20260508092503 61 11 3.0 6.0 0.00 0.08 0.08 73 1005.7
20260508092003 61 4 3.0 7.0 0.00 0.08 0.08 74 1005.7
20260508091503 61 3 4.0 8.0 0.02 0.08 0.08 73 1005.7
20260508091003 61 5 6.0 9.0 0.02 0.08 0.08 73 1005.7
20260508090503 61 12 4.0 8.0 0.02 0.08 0.08 73 1005.7
20260508090003 61 15 3.0 6.0 0.02 0.08 0.08 73 1005.6
20260508085503 61 10 5.0 8.0 0.02 0.08 0.08 73 1005.5
20260508085003 61 8 4.0 7.0 0.02 0.08 0.08 73 1005.6
20260508084503 61 16 4.0 9.0 0.02 0.08 0.08 73 1005.6
20260508084003 60 10 6.0 10.0 0.02 0.08 0.08 73 1005.6
20260508083503 60 12 5.0 9.0 0.04 0.08 0.08 73 1005.6
20260508083003 60 10 7.0 11.0 0.04 0.08 0.08 73 1005.6
20260508082503 60 12 6.0 11.0 0.04 0.08 0.08 73 1005.6
20260508082003 60 13 7.0 10.0 0.04 0.08 0.08 73 1005.6
20260508081504 60 20 6.0 11.0 0.02 0.06 0.06 73 1005.6
20260508081003 60 21 6.0 9.0 0.02 0.06 0.06 73 1005.6
20260508080503 60 19 4.0 9.0 0.02 0.06 0.06 73 1005.6
20260508080003 60 14 6.0 10.0 0.02 0.06 0.06 73 1005.6
20260508075503 60 16 6.0 10.0 0.02 0.06 0.06 73 1005.6
20260508075003 60 13 4.0 8.0 0.02 0.06 0.06 73 1005.6
20260508074503 60 16 5.0 8.0 0.02 0.06 0.06 73 1005.6
20260508074003 60 18 5.0 10.0 0.02 0.06 0.06 73 1005.6
20260508073503 60 3 5.0 9.0 0.00 0.04 0.04 73 1005.6
20260508073003 60 14 5.0 9.0 0.00 0.04 0.04 73 1005.7
20260508072503 60 12 3.0 6.0 0.00 0.04 0.04 73 1005.7
20260508072003 60 9 6.0 11.0 0.00 0.04 0.04 73 1005.7
20260508071503 60 17 6.0 13.0 0.00 0.04 0.04 73 1005.7
20260508071003 60 23 5.0 11.0 0.00 0.04 0.04 72 1005.7
20260508070503 60 15 6.0 8.0 0.02 0.04 0.04 73 1005.7
20260508070004 60 24 6.0 8.0 0.02 0.04 0.04 72 1005.8
20260508065503 60 22 5.0 9.0 0.02 0.04 0.04 72 1005.9
20260508065003 60 18 4.0 7.0 0.02 0.04 0.04 72 1005.9
20260508064503 60 23 3.0 5.0 0.02 0.04 0.04 72 1006.0
20260508064003 60 18 3.0 5.0 0.02 0.04 0.04 72 1006.1
20260508063503 60 24 3.0 5.0 0.02 0.04 0.04 72 1006.1
20260508063003 60 19 3.0 5.0 0.02 0.04 0.04 72 1006.1
20260508062503 60 24 3.0 5.0 0.02 0.04 0.04 72 1006.1
20260508062003 60 22 3.0 5.0 0.02 0.04 0.04 72 1006.1
20260508061503 60 20 3.0 8.0 0.02 0.04 0.04 72 1006.1
20260508061003 59 24 3.0 5.0 0.02 0.04 0.04 72 1006.1
20260508060503 59 27 4.0 7.0 0.00 0.02 0.02 72 1006.1
20260508060003 59 29 4.0 9.0 0.00 0.02 0.02 72 1006.0
20260508055504 59 32 4.0 8.0 0.00 0.02 0.02 72 1006.0
20260508055003 59 34 4.0 9.0 0.00 0.02 0.02 72 1006.0
20260508054503 59 43 4.0 8.0 0.00 0.02 0.02 72 1006.0
20260508054003 59 33 4.0 7.0 0.00 0.02 0.02 72 1006.0
20260508053503 59 36 5.0 8.0 0.00 0.02 0.02 72 1006.0
20260508053003 59 28 4.0 6.0 0.00 0.02 0.02 72 1006.0
20260508052503 59 33 4.0 7.0 0.00 0.02 0.02 72 1006.0
20260508052003 59 29 5.0 10.0 0.00 0.02 0.02 72 1005.9
20260508051503 59 34 3.0 6.0 0.02 0.02 0.02 72 1006.0
20260508051003 59 28 4.0 7.0 0.02 0.02 0.02 72 1006.0
20260508050503 59 26 4.0 8.0 0.02 0.02 0.02 72 1005.9
20260508050003 59 24 5.0 8.0 0.02 0.02 0.02 72 1005.9
20260508045503 59 25 4.0 7.0 0.02 0.02 0.02 72 1005.7
20260508045003 59 30 4.0 8.0 0.02 0.02 0.02 72 1005.8
20260508044503 59 37 5.0 9.0 0.02 0.02 0.02 72 1005.7
20260508044003 59 45 5.0 9.0 0.02 0.02 0.02 72 1005.7
20260508043503 59 51 6.0 9.0 0.02 0.02 0.02 72 1005.7
20260508043003 59 47 6.0 11.0 0.02 0.02 0.02 72 1005.8
20260508042503 60 45 5.0 9.0 0.02 0.02 0.02 72 1005.7
20260508042003 60 40 5.0 9.0 0.02 0.02 0.02 73 1005.7
20260508041003 60 44 5.0 9.0 0.00 0.00 0.00 73 1005.7
20260508040503 60 40 4.0 7.0 0.00 0.00 0.00 72 1005.7
20260508040003 60 43 4.0 8.0 0.00 0.00 0.00 72 1005.7
20260508035503 60 48 5.0 9.0 0.00 0.00 0.00 72 1005.7
20260508035003 61 54 6.0 11.0 0.00 0.00 0.00 72 1005.6
20260508034503 61 49 5.0 10.0 0.00 0.00 0.00 71 1005.7
20260508034003 61 49 5.0 10.0 0.00 0.00 0.00 71 1005.6
20260508033503 61 47 5.0 10.0 0.00 0.00 0.00 71 1005.6
20260508033003 61 51 5.0 10.0 0.00 0.00 0.00 71 1005.6
20260508032503 62 51 6.0 9.0 0.00 0.00 0.00 71 1005.6
20260508032003 61 51 6.0 11.0 0.00 0.00 0.00 71 1005.7
20260508031503 61 54 5.0 10.0 0.00 0.00 0.00 71 1005.7
20260508031003 61 48 5.0 11.0 0.00 0.00 0.00 71 1005.8
20260508030503 61 48 5.0 9.0 0.00 0.02 0.00 71 1005.8
20260508030003 61 55 6.0 10.0 0.00 0.02 0.00 71 1005.8
20260508025503 61 49 5.0 10.0 0.00 0.02 0.00 71 1005.8
20260508025003 61 51 6.0 11.0 0.00 0.02 0.00 71 1005.9
20260508024503 61 52 6.0 10.0 0.00 0.02 0.00 70 1006.0
20260508024003 61 46 5.0 10.0 0.00 0.02 0.00 70 1006.0
20260508023503 61 49 5.0 9.0 0.00 0.02 0.00 71 1006.0
20260508023003 61 41 4.0 9.0 0.00 0.02 0.00 71 1006.0
20260508022503 61 43 5.0 9.0 0.00 0.02 0.00 71 1006.1
20260508022003 61 47 4.0 9.0 0.00 0.02 0.00 71 1006.2
20260508021503 61 47 4.0 7.0 0.00 0.02 0.00 71 1006.3
20260508021003 61 40 4.0 8.0 0.00 0.02 0.00 71 1006.3
20260508020503 60 43 5.0 9.0 0.00 0.02 0.00 71 1006.4
20260508020003 61 28 3.0 6.0 0.00 0.02 0.00 71 1006.4
20260508015503 61 33 4.0 7.0 0.00 0.02 0.00 71 1006.4
20260508015003 61 43 3.0 8.0 0.00 0.02 0.00 71 1006.4
20260508014503 60 48 4.0 6.0 0.00 0.02 0.00 71 1006.5
20260508014003 60 47 3.0 6.0 0.00 0.02 0.00 71 1006.5
20260508013503 61 32 3.0 8.0 0.00 0.02 0.00 71 1006.4
20260508013003 61 44 4.0 7.0 0.00 0.02 0.00 71 1006.4
20260508012503 61 42 4.0 8.0 0.00 0.02 0.00 71 1006.4
20260508012003 61 54 4.0 9.0 0.00 0.02 0.00 71 1006.6
20260508011503 61 48 4.0 11.0 0.00 0.02 0.00 71 1006.6
20260508011003 61 50 3.0 6.0 0.00 0.02 0.00 71 1006.6
20260508010503 61 46 3.0 5.0 0.00 0.04 0.00 71 1006.7
20260508010003 61 54 4.0 12.0 0.00 0.04 0.00 71 1006.6
20260508005503 61 60 4.0 12.0 0.00 0.04 0.00 71 1006.6
20260508005003 61 56 4.0 11.0 0.00 0.04 0.00 71 1006.7
20260508004503 60 51 4.0 10.0 0.00 0.04 0.00 71 1006.7
20260508004003 60 55 3.0 5.0 0.00 0.04 0.00 71 1006.7
20260508003503 60 49 4.0 7.0 0.00 0.04 0.00 71 1006.7
20260508003003 60 50 5.0 9.0 0.00 0.04 0.00 71 1006.8
20260508002503 60 51 6.0 9.0 0.00 0.04 0.00 71 1007.0
20260508002003 60 51 6.0 11.0 0.00 0.04 0.00 71 1007.1
20260508001503 60 43 5.0 10.0 0.00 0.04 0.00 71 1007.0
20260508001003 60 46 5.0 9.0 0.00 0.04 0.00 70 1007.2
20260508000503 60 48 6.0 11.0 0.00 0.04 0.00 70 1007.2
20260508000003 60 45 5.0 9.0 0.00 0.04 0.00 70 1007.4
20260507235503 60 45 4.0 8.0 0.00 0.04 0.00 70 1007.5
20260507235003 60 44 4.0 9.0 0.00 0.04 0.00 70 1007.6
20260507234503 60 50 4.0 9.0 0.00 0.04 0.00 70 1007.7
20260507234003 60 44 3.0 7.0 0.00 0.04 0.00 70 1007.7
20260507233503 60 41 3.0 7.0 0.00 0.04 0.00 70 1007.8
20260507233003 60 47 5.0 9.0 0.00 0.04 0.00 69 1007.8
20260507232503 60 46 5.0 9.0 0.00 0.04 0.00 69 1007.9
20260507232003 60 53 5.0 9.0 0.00 0.04 0.00 69 1008.0
20260507231503 60 44 5.0 10.0 0.00 0.04 0.00 69 1008.1
20260507231003 60 45 2.0 6.0 0.00 0.04 0.00 69 1008.2
20260507230503 60 34 3.0 6.0 0.00 0.04 0.00 69 1008.4
20260507230003 59 31 2.0 5.0 0.00 0.04 0.00 69 1008.4
20260507225503 59 30 2.0 5.0 0.00 0.04 0.00 69 1008.5
20260507225003 59 30 4.0 6.0 0.00 0.04 0.00 69 1008.6
20260507224504 59 24 3.0 6.0 0.00 0.04 0.00 69 1008.6
20260507224003 59 31 2.0 4.0 0.00 0.04 0.00 69 1008.6
20260507223503 59 24 3.0 7.0 0.00 0.04 0.00 69 1008.7
20260507223003 59 25 4.0 6.0 0.00 0.04 0.00 69 1008.6
20260507222503 59 23 3.0 4.0 0.00 0.04 0.00 68 1008.7
20260507222003 59 24 2.0 4.0 0.00 0.04 0.00 68 1008.7
20260507221503 59 27 1.0 3.0 0.00 0.04 0.00 68 1008.8
20260507221003 60 41 1.0 4.0 0.00 0.04 0.00 68 1008.8
20260507220503 60 23 1.0 3.0 0.00 0.04 0.00 67 1008.8
20260507220003 60 22 2.0 4.0 0.00 0.04 0.00 67 1008.7
20260507215503 60 23 2.0 4.0 0.00 0.04 0.04 67 1008.7
20260507215003 60 24 2.0 4.0 0.00 0.04 0.04 67 1008.7
20260507214503 60 32 2.0 4.0 0.00 0.04 0.04 67 1008.7
20260507214003 60 24 2.0 4.0 0.00 0.04 0.04 67 1008.8
20260507213503 60 24 2.0 4.0 0.00 0.04 0.04 67 1008.8
20260507213003 60 22 2.0 4.0 0.00 0.04 0.04 68 1008.8
20260507212503 60 24 2.0 4.0 0.00 0.04 0.04 68 1008.8
20260507212003 60 17 1.0 3.0 0.00 0.04 0.04 68 1008.8
20260507211503 61 25 1.0 3.0 0.00 0.04 0.04 68 1008.8
20260507211003 61 21 1.0 4.0 0.00 0.04 0.04 67 1008.7
20260507210503 62 24 2.0 4.0 0.00 0.04 0.04 67 1008.7
20260507210003 62 22 2.0 3.0 0.00 0.04 0.04 66 1008.8
20260507205503 62 29 1.0 4.0 0.00 0.04 0.04 66 1008.8
20260507205003 62 43 2.0 5.0 0.00 0.04 0.04 66 1008.9
20260507204503 62 45 2.0 5.0 0.00 0.04 0.04 66 1008.9
20260507204003 62 51 2.0 6.0 0.00 0.04 0.04 66 1008.8
20260507203503 63 42 1.0 4.0 0.00 0.04 0.04 67 1009.0
20260507203003 63 76 2.0 5.0 0.00 0.04 0.04 67 1009.0
20260507202503 63 83 1.0 5.0 0.00 0.04 0.04 68 1008.9
20260507202003 63 70 1.0 5.0 0.00 0.04 0.04 68 1009.0
20260507201503 62 69 0.0 4.0 0.00 0.04 0.04 69 1009.1
20260507201003 62 74 1.0 4.0 0.00 0.04 0.04 70 1009.1
20260507200503 62 69 1.0 4.0 0.00 0.04 0.04 70 1009.2
20260507200003 63 59 2.0 5.0 0.00 0.04 0.04 70 1009.3
20260507195503 63 66 2.0 4.0 0.00 0.04 0.04 70 1009.3
20260507195003 63 52 1.0 4.0 0.00 0.04 0.04 71 1009.3
20260507194503 63 61 1.0 6.0 0.00 0.04 0.04 71 1009.3
20260507194003 63 72 0.0 4.0 0.00 0.04 0.04 71 1009.3
20260507193503 63 88 0.0 3.0 0.00 0.04 0.04 71 1009.1
20260507193003 63 73 1.0 5.0 0.00 0.04 0.04 71 1009.1
20260507192503 63 77 1.0 5.0 0.00 0.04 0.04 71 1009.2
20260507192003 63 68 0.0 4.0 0.00 0.04 0.04 71 1009.2
20260507191503 63 82 1.0 4.0 0.00 0.04 0.04 71 1009.3
20260507191003 63 73 1.0 4.0 0.00 0.04 0.04 70 1009.1
20260507190503 63 68 1.0 4.0 0.00 0.04 0.04 70 1009.0
20260507190004 63 71 1.0 4.0 0.00 0.04 0.04 70 1009.0
20260507185503 63 79 1.0 3.0 0.00 0.04 0.04 70 1009.0
20260507185003 63 62 1.0 6.0 0.00 0.04 0.04 70 1009.1
20260507184503 63 63 2.0 7.0 0.00 0.04 0.04 70 1009.0
20260507184003 64 65 1.0 3.0 0.00 0.04 0.04 69 1009.0
20260507183503 64 54 0.0 3.0 0.00 0.04 0.04 69 1009.4
20260507183003 64 83 1.0 4.0 0.00 0.04 0.04 69 1009.3
20260507182503 64 97 1.0 5.0 0.00 0.04 0.04 69 1009.3
20260507182003 64 85 1.0 4.0 0.00 0.04 0.04 69 1009.3
20260507181503 64 91 1.0 4.0 0.00 0.04 0.04 69 1009.4
20260507181003 64 104 1.0 4.0 0.00 0.04 0.04 69 1009.3
20260507180503 64 114 0.0 4.0 0.00 0.04 0.04 70 1009.3
20260507180003 64 79 0.0 2.0 0.00 0.04 0.04 70 1009.3
20260507175503 64 71 1.0 6.0 0.00 0.04 0.04 70 1009.1
20260507175003 64 89 1.0 6.0 0.00 0.04 0.04 70 1008.9
20260507174503 64 70 0.0 4.0 0.00 0.04 0.04 70 1008.9
20260507174003 64 113 1.0 3.0 0.00 0.04 0.04 70 1009.0
20260507173503 64 116 1.0 7.0 0.00 0.04 0.04 70 1009.1
20260507173003 65 94 1.0 5.0 0.00 0.04 0.04 70 1009.0
20260507172505 65 77 1.0 5.0 0.00 0.04 0.04 70 1008.9
20260507172003 65 96 1.0 4.0 0.00 0.04 0.04 70 1009.1
20260507171503 65 99 2.0 8.0 0.00 0.04 0.04 70 1009.0
20260507171003 65 153 2.0 5.0 0.00 0.04 0.04 70 1008.8
20260507170503 65 123 1.0 6.0 0.00 0.04 0.04 70 1009.0
20260507170003 65 100 1.0 5.0 0.00 0.04 0.04 70 1008.9
20260507165503 65 123 2.0 7.0 0.00 0.04 0.04 69 1009.0
20260507165003 65 103 1.0 2.0 0.00 0.04 0.04 69 1009.1
20260507164503 66 117 2.0 6.0 0.00 0.04 0.04 69 1009.3
20260507164003 66 146 1.0 7.0 0.00 0.04 0.04 68 1009.3
20260507163503 66 98 2.0 6.0 0.00 0.04 0.04 68 1009.2
20260507163003 66 104 2.0 6.0 0.00 0.04 0.04 67 1009.3
20260507162503 67 130 2.0 10.0 0.00 0.04 0.04 67 1009.4
20260507162003 67 118 1.0 5.0 0.00 0.04 0.04 67 1009.4
20260507161503 67 138 2.0 7.0 0.00 0.04 0.04 66 1009.2
20260507161003 67 135 2.0 6.0 0.00 0.04 0.04 66 1009.1
20260507160504 67 134 3.0 9.0 0.00 0.04 0.04 66 1009.0
20260507160003 67 138 3.0 13.0 0.00 0.04 0.04 65 1009.0
20260507155503 68 125 4.0 12.0 0.00 0.04 0.04 64 1009.1
20260507155003 68 83 2.0 6.0 0.00 0.04 0.04 65 1009.1
20260507154503 68 98 3.0 9.0 0.00 0.04 0.04 64 1009.0
20260507154003 68 120 3.0 11.0 0.00 0.04 0.04 64 1009.1
20260507153504 68 138 3.0 9.0 0.00 0.04 0.04 65 1009.2
20260507153003 68 115 2.0 7.0 0.00 0.04 0.04 64 1009.2
20260507152503 68 123 3.0 10.0 0.00 0.04 0.04 64 1009.3
20260507152003 68 124 2.0 9.0 0.00 0.04 0.04 63 1009.3
20260507151503 69 120 3.0 10.0 0.00 0.04 0.04 63 1009.4
20260507151003 69 131 2.0 9.0 0.00 0.04 0.04 62 1009.4
20260507150503 68 138 3.0 9.0 0.00 0.04 0.04 62 1009.4
20260507150003 68 129 3.0 11.0 0.00 0.04 0.04 63 1009.5
20260507145503 69 136 3.0 9.0 0.00 0.04 0.04 62 1009.6
20260507145003 69 132 2.0 8.0 0.00 0.04 0.04 63 1009.6
20260507144503 69 129 3.0 10.0 0.00 0.04 0.04 63 1009.6
20260507144003 69 137 3.0 9.0 0.00 0.04 0.04 63 1009.5
20260507143503 69 153 2.0 9.0 0.00 0.04 0.04 63 1009.5
20260507143003 69 134 3.0 10.0 0.00 0.04 0.04 64 1009.6
20260507142503 69 139 3.0 9.0 0.00 0.04 0.04 64 1009.6
20260507142003 69 134 2.0 7.0 0.00 0.04 0.04 64 1009.7
20260507141503 69 135 2.0 8.0 0.00 0.04 0.04 65 1009.8
20260507141003 69 131 2.0 8.0 0.00 0.04 0.04 65 1009.9
20260507140503 69 145 2.0 7.0 0.00 0.04 0.04 66 1010.0
20260507140003 69 138 3.0 9.0 0.00 0.04 0.04 66 1010.0
20260507135503 70 137 2.0 11.0 0.00 0.04 0.04 66 1010.0
20260507135003 70 153 1.0 4.0 0.00 0.04 0.04 67 1009.9
20260507134503 70 137 1.0 6.0 0.00 0.04 0.04 68 1010.0
20260507134003 69 155 2.0 6.0 0.00 0.04 0.04 68 1009.9
20260507133503 69 149 3.0 9.0 0.00 0.04 0.04 68 1010.1
20260507133003 69 152 2.0 7.0 0.00 0.04 0.04 69 1010.0
20260507132503 68 147 3.0 8.0 0.00 0.04 0.04 69 1009.9
20260507132003 68 144 4.0 9.0 0.00 0.04 0.04 69 1010.1
20260507131503 68 146 3.0 8.0 0.00 0.04 0.04 70 1010.2
20260507131003 67 150 6.0 11.0 0.00 0.04 0.04 70 1010.2
20260507130503 67 142 6.0 11.0 0.00 0.04 0.04 70 1010.3
20260507130003 68 160 4.0 10.0 0.00 0.04 0.04 71 1010.2
20260507125503 67 163 4.0 11.0 0.00 0.04 0.04 71 1010.3
20260507125003 67 151 5.0 12.0 0.00 0.04 0.04 71 1010.3
20260507124503 67 145 6.0 11.0 0.00 0.04 0.04 71 1010.4
20260507124003 67 149 5.0 12.0 0.00 0.04 0.04 71 1010.4
20260507123503 67 150 4.0 8.0 0.00 0.04 0.04 71 1010.5
20260507123003 67 143 4.0 9.0 0.00 0.04 0.04 71 1010.6
20260507122503 67 149 4.0 11.0 0.00 0.04 0.04 71 1010.6
20260507122004 67 144 5.0 11.0 0.00 0.04 0.04 71 1010.4
20260507121503 67 153 5.0 12.0 0.00 0.04 0.04 71 1010.6
20260507121003 67 162 4.0 8.0 0.00 0.04 0.04 71 1010.5
20260507120503 66 151 6.0 11.0 0.00 0.04 0.04 71 1010.6
20260507120004 67 143 7.0 13.0 0.00 0.04 0.04 71 1010.6
20260507115503 67 141 5.0 13.0 0.00 0.04 0.04 71 1010.7
20260507115003 68 160 3.0 9.0 0.00 0.04 0.04 71 1011.0
20260507114503 67 160 4.0 8.0 0.00 0.04 0.04 71 1011.1
20260507114003 67 153 4.0 11.0 0.00 0.04 0.04 72 1011.0
20260507113503 67 161 4.0 11.0 0.00 0.04 0.04 72 1011.1
20260507113003 67 168 2.0 6.0 0.00 0.04 0.04 72 1010.9
20260507112503 67 156 5.0 12.0 0.00 0.04 0.04 72 1010.9
20260507112003 67 152 5.0 11.0 0.00 0.04 0.04 72 1010.9
20260507111504 67 166 4.0 11.0 0.00 0.04 0.04 72 1011.0